This is the latest recevied weather packets stored in our database for station/object SP3SWJ-13. If no packets are shown the sender has not sent any weather packets the latest 10 day(s).
| Time | Temp. | Humidity | Pressure | Rain* | Wind** | Luminosity | Snow |
|---|---|---|---|---|---|---|---|
| 1777952027 | 12.78° C | 84% | 1001.9 hPa | - | - | 1 W/m² | - |
| 1777951726 | 12.78° C | 84% | 1001.9 hPa | - | - | - | - |
| 1777951425 | 12.78° C | 82% | 1002.1 hPa | - | - | - | - |
| 1777951124 | 13.33° C | 79% | 1002.1 hPa | - | - | - | - |
| 1777950823 | 13.33° C | 78% | 1002.1 hPa | - | - | - | - |
| 1777950521 | 13.33° C | 77% | 1002 hPa | - | - | - | - |
| 1777950221 | 13.33° C | 77% | 1002.1 hPa | - | - | - | - |
| 1777949920 | 13.33° C | 77% | 1002.1 hPa | - | - | - | - |
| 1777949618 | 13.33° C | 77% | 1002.3 hPa | - | - | - | - |
| 1777949317 | 13.33° C | 79% | 1002.4 hPa | - | - | - | - |
| 1777949017 | 13.33° C | 82% | 1002.4 hPa | - | - | - | - |
| 1777948716 | 13.33° C | 81% | 1002.4 hPa | - | - | - | - |
| 1777948415 | 13.33° C | 80% | 1002.4 hPa | - | - | - | - |
| 1777948114 | 13.33° C | 80% | 1002.5 hPa | - | - | - | - |
| 1777947813 | 13.33° C | 79% | 1002.3 hPa | - | - | - | - |
| 1777947512 | 13.89° C | 78% | 1002.2 hPa | - | - | - | - |
| 1777947211 | 13.89° C | 77% | 1002.5 hPa | - | - | - | - |
| 1777946910 | 13.89° C | 75% | 1002.7 hPa | - | - | - | - |
| 1777946610 | 14.44° C | 74% | 1002.7 hPa | - | - | - | - |
| 1777946309 | 14.44° C | 74% | 1002.7 hPa | - | - | - | - |
| 1777946008 | 14.44° C | 74% | 1002.6 hPa | - | - | - | - |
| 1777945707 | 14.44° C | 74% | 1002.5 hPa | - | - | - | - |
| 1777945406 | 13.89° C | 75% | 1002.4 hPa | - | - | - | - |
| 1777945105 | 13.89° C | 75% | 1002.3 hPa | - | - | - | - |
| 1777944804 | 13.89° C | 75% | 1002.2 hPa | - | - | - | - |
* Rain since midnight (hover to see other rain measurements)
** Current wind speed in m/s (hover to see current wind gust speed)